Location: Presov
(49.0000°N, 21.2500°E)
Time: 00:54:48
(UTC+02:00)

Transit 2A Rocket - Pass Details

Date: 16 April 2021
Orbit: 594 x 908 km, 66.7° (Epoch: 06 May)

Event Time Altitude Azimuth Distance (km) Brightness Sun altitude
Rises 02:41:41 0° 311° (NW) 2,886 8.1 -24.6°
Enters shadow 02:43:23 - 302° (WNW) 2,317 7.5 -24.5°
Reaches altitude 10° 02:44:26 10° 293° (WNW) 2,009 - -24.4°
Maximum altitude 02:47:33 19° 249° (WSW) 1,560 - -24.1°
Drops below altitude 10° 02:50:48 10° 206° (SSW) 2,105 - -23.7°
Sets 02:53:47 0° 188° (S) 3,077 - -23.4°
